Location: *
(18.5200°S, 46.4500°E)
Time: 15:26:56
(UTC+00:00)

Cosmos 2251 Rocket - Pass Details

Date: 19 July 2019
Orbit: 765 x 792 km, 74.0° (Epoch: 20 August)

Event Time Altitude Azimuth Distance (km) Brightness Sun altitude
Rises 15:36:24 0° 191° (S) 3,288 6.7 -14.5°
Reaches altitude 10° 15:38:50 10° 189° (S) 2,350 5.9 -15.1°
Maximum altitude 15:44:09 72° 104° (ESE) 818 3.4 -16.3°
Drops below altitude 10° 15:49:23 10° 20° (NNE) 2,308 6.0 -17.5°
Sets 15:51:45 0° 17° (NNE) 3,225 6.7 -18.0°
